Location: Banff
(51.1667°N, 115.5667°W)
Time: 03:21:27
(UTC+00:00)

Explorer 7 - Pass Details

Date: 28 November 2020
Orbit: 484 x 678 km, 50.3° (Epoch: 16 January)

Event Time Altitude Azimuth Distance (km) Brightness Sun altitude
Exits shadow 14:15:53 12° 275° (W) 1,695 8.7 -9.8°
Maximum altitude 14:19:33 52° 201° (SSW) 666 7.2 -9.2°
Drops below altitude 10° 14:23:23 10° 124° (SE) 1,734 10.9 -8.7°
Sets 14:25:33 0° 120° (ESE) 2,594 12.6 -8.4°
